Flag for Germany Weather past 2 weeks in Oldenburg, Lower Saxony, Germany

59 °F

Partly sunny.

Feels Like: 58 °F
Forecast: 41 / 52 °F
Wind: 8 mph from North

Location: Bremen Airport

Current Time: Oct 9, 2015 at 1:23:59 PM

Latest Report: Oct 9, 2015 at 12:50 PM

Visibility: N/A

Pressure: 30.18 "Hg

Humidity: 82%

Dew point: 54 °F

Location of OldenburgLocation

Historic Weather in Oldenburg — Graph


Oldenburg temperature yesterday

Maximum temperature yesterday: 61 °F (at 3:50 PM)
Minimum temperature yesterday: 55 °F (at 12:50 AM)
Average temperature yesterday: 58 °F

Past Weeks' High & Low Weather Summary

High64 °F (Oct 3, 2:20 PM)100% (Sep 24, 10:20 PM)30.72 "Hg (Sep 24, 10:20 PM)
Low37 °F (Oct 2, 2:50 AM)48% (Oct 1, 1:20 PM)29.65 "Hg (Oct 6, 9:50 AM)
Average54 °F86%30.22 "Hg
* Reported Sep 24 12:20 PM — Oct 9 12:20 PM, Oldenburg, Weather by CustomWeather, © 2015

Note: Actual official high and low records may vary slightly from our data, if they occured in-between our weather recording intervals... More about our weather records


Oldenburg weather history for previous 24 hours

Time TempWeatherWind HumidityBarometerVisibility
12:20 PM
Fri, Oct 9
59 °FBroken clouds.9 mph82%30.18 "HgN/A
11:50 AM59 °FPartly sunny.8 mph82%30.18 "HgN/A
11:20 AM59 °FPartly sunny.7 mph82%30.18 "HgN/A
10:50 AM57 °FPartly sunny.7 mph88%30.18 "HgN/A
10:20 AM57 °FBroken clouds.8 mph94%30.18 "HgN/A
9:50 AM57 °FBroken clouds.7 mph88%30.18 "HgN/A
9:20 AM55 °FBroken clouds.6 mph94%30.18 "HgN/A
8:50 AM55 °FBroken clouds.5 mph94%30.15 "HgN/A
8:20 AM55 °FFog.6 mph94%30.15 "Hg3 mi
7:50 AM55 °FPassing clouds.3 mph94%30.15 "Hg5 mi
7:20 AM55 °FPassing clouds.3 mph94%30.15 "Hg5 mi
6:50 AM54 °FPassing clouds.6 mph100%30.15 "HgN/A
6:20 AM54 °FPartly cloudy.5 mph100%30.15 "HgN/A
5:50 AM55 °FPassing clouds.5 mph94%30.15 "HgN/A
5:20 AM55 °FPartly cloudy.6 mph94%30.15 "HgN/A
4:50 AM55 °FPartly cloudy.3 mph100%30.15 "HgN/A
4:20 AM55 °FPassing clouds.3 mph94%30.15 "HgN/A
3:50 AM55 °FPartly cloudy.3 mph94%30.15 "HgN/A
3:20 AM55 °FPartly cloudy.3 mph94%30.15 "HgN/A
2:50 AM55 °FPassing clouds.5 mph100%30.15 "HgN/A
2:20 AM55 °FPartly cloudy.3 mph100%30.15 "HgN/A
1:50 AM55 °FPartly cloudy.5 mph100%30.15 "HgN/A
1:20 AM55 °FPassing clouds.6 mph94%30.15 "HgN/A
12:50 AM55 °FPassing clouds.6 mph100%30.15 "HgN/A
12:20 AM55 °FPassing clouds.5 mph100%30.15 "HgN/A
11:20 PM
Thu, Oct 8
57 °FPartly cloudy.5 mph94%30.15 "HgN/A
10:50 PM57 °FPassing clouds.5 mph94%30.12 "HgN/A
10:20 PM57 °FLight rain. Passing clouds.5 mph94%30.12 "HgN/A
9:50 PM57 °FPartly cloudy.6 mph94%30.12 "HgN/A
9:20 PM57 °FPartly cloudy.6 mph94%30.12 "HgN/A
8:50 PM57 °FLight rain. Partly cloudy.3 mph94%30.12 "HgN/A
8:20 PM57 °FPartly cloudy.2 mph94%30.12 "HgN/A
7:50 PM57 °FPartly cloudy.2 mph94%30.12 "HgN/A
7:20 PM57 °FPartly sunny.2 mph94%30.12 "HgN/A
6:50 PM57 °FBroken clouds.3 mph94%30.09 "HgN/A
6:20 PM59 °FPartly sunny.5 mph88%30.09 "HgN/A
5:50 PM59 °FBroken clouds.5 mph88%30.09 "HgN/A
5:20 PM59 °FLight rain. Partly sunny.6 mph88%30.09 "HgN/A
4:50 PM61 °FLight rain. Partly sunny.7 mph83%30.09 "HgN/A
4:20 PM61 °FPartly sunny.5 mph88%30.09 "HgN/A
3:50 PM61 °FPartly sunny.5 mph88%30.09 "HgN/A
3:20 PM59 °FPartly sunny.6 mph94%30.09 "Hg6 mi
2:50 PM59 °FPartly sunny.7 mph94%30.07 "Hg4 mi
2:20 PM59 °FPartly sunny.7 mph94%30.07 "Hg4 mi
1:50 PM59 °FDrizzle. Partly sunny.7 mph94%30.07 "Hg4 mi
1:20 PM57 °FDrizzle. Partly sunny.3 mph94%30.07 "Hg4 mi
Weather by CustomWeather, © 2015

See weather overviewHow to use our weather pages